DW3263 Weather Reports


time (UTC)temp
C
wind
direction
speed
KPH
gust
KPH
rain 1hr
cm
rain 24hr
cm
rain mn
cm
humidity
%
barometer
mb
20260507142519 13 338 3.2 8.0 0.00 0.15 0.05 46 1010.9
20260507141519 12 338 3.2 11.3 0.00 0.18 0.05 49 1010.8
20260507140519 12 338 3.2 14.5 0.00 0.18 0.05 46 1011.0
20260507135519 12 315 4.8 14.5 0.00 0.18 0.05 47 1011.1
20260507134519 12 270 4.8 12.9 0.00 0.18 0.05 50 1011.2
20260507133519 12 315 4.8 12.9 0.00 0.18 0.05 50 1011.3
20260507132519 12 315 4.8 11.3 0.00 0.18 0.05 51 1011.2
20260507131519 12 338 4.8 12.9 0.03 0.18 0.05 51 1011.2
20260507130519 12 338 3.2 6.4 0.03 0.18 0.05 55 1011.2
20260507125519 11 338 1.6 4.8 0.03 0.20 0.05 55 1011.1
20260507125155 11 338 4.8 11.3 0.03 0.20 0.05 53 1011.1
20260507123519 11 293 3.2 8.0 0.03 0.20 0.05 54 1011.4
20260507122519 11 293 4.8 14.5 0.03 0.20 0.05 55 1011.4
20260507121519 11 293 1.6 4.8 0.00 0.18 0.03 55 1011.3
20260507120519 10 293 3.2 9.7 0.00 0.18 0.03 57 1011.3
20260507115519 10 270 4.8 11.3 0.00 0.18 0.03 56 1011.3
20260507114519 10 248 3.2 6.4 0.00 0.18 0.03 57 1011.3
20260507113519 10 248 4.8 11.3 0.00 0.18 0.03 57 1011.0
20260507112519 10 248 3.2 9.7 0.00 0.18 0.03 57 1010.9
20260507111519 10 248 1.6 4.8 0.00 0.18 0.03 59 1010.9
20260507110519 10 248 1.6 6.4 0.00 0.18 0.03 60 1010.7
20260507105519 9 248 1.6 6.4 0.00 0.18 0.03 60 1010.7
20260507104520 9 248 3.2 6.4 0.00 0.18 0.03 58 1010.5
20260507103519 9 248 3.2 8.0 0.00 0.18 0.03 60 1010.4
20260507102519 10 248 3.2 6.4 0.00 0.18 0.03 59 1010.4
20260507101520 9 315 3.2 6.4 0.00 0.18 0.03 59 1010.2
20260507100729 10 315 3.2 6.4 0.00 0.18 0.03 61 1010.1
20260507095519 10 315 3.2 6.4 0.00 0.18 0.03 60 1010.1
20260507094519 10 315 3.2 8.0 0.00 0.18 0.03 59 1010.0
20260507093519 10 315 1.6 4.8 0.00 0.18 0.03 62 1009.9
20260507092519 10 315 4.8 8.0 0.00 0.18 0.03 59 1009.8
20260507091519 10 315 6.4 11.3 0.00 0.18 0.03 60 1009.5
20260507090520 10 315 3.2 8.0 0.00 0.18 0.03 60 1009.5
20260507085519 10 315 3.2 6.4 0.00 0.18 0.03 60 1009.4
20260507084732 10 315 3.2 6.4 0.00 0.18 0.03 60 1009.5
20260507083733 10 315 3.2 8.0 0.00 0.18 0.03 59 1009.6
20260507082729 10 315 4.8 11.3 0.00 0.18 0.03 60 1009.5
20260507081519 10 315 3.2 9.7 0.00 0.18 0.03 59 1009.7
20260507080520 10 315 3.2 8.0 0.00 0.18 0.03 59 1009.6
20260507075520 10 315 1.6 8.0 0.00 0.18 0.03 59 1009.6
20260507074520 10 315 1.6 6.4 0.00 0.18 0.03 58 1009.5
20260507073728 11 315 6.4 17.7 0.03 0.18 0.03 57 1009.7
20260507072520 11 315 3.2 9.7 0.03 0.18 0.03 58 1009.7
20260507071519 11 315 3.2 9.7 0.03 0.18 0.03 58 1009.6
20260507070519 11 315 4.8 9.7 0.03 0.18 0.03 59 1009.8
20260507065519 11 315 3.2 8.0 0.03 0.18 0.03 60 1009.8
20260507064519 11 315 4.8 11.3 0.03 0.18 0.03 61 1009.7
20260507063520 11 315 6.4 12.9 0.00 0.15 0.00 62 1009.5
20260507062519 11 315 4.8 9.7 0.00 0.15 0.00 65 1009.5
20260507061731 11 315 6.4 11.3 0.00 0.15 0.00 59 1009.6
20260507060520 11 315 4.8 9.7 0.00 0.15 0.00 46 1009.6
20260507055519 11 315 6.4 14.5 0.00 0.15 0.00 43 1009.6
20260507054519 11 293 6.4 14.5 0.00 0.15 0.00 45 1009.6
20260507053520 11 315 8.0 14.5 0.00 0.15 0.00 44 1009.6
20260507052519 11 315 3.2 8.0 0.00 0.15 0.00 38 1009.6
20260507051520 12 315 4.8 12.9 0.00 0.15 0.00 45 1009.4
20260507050520 12 315 4.8 11.3 0.00 0.15 0.00 55 1009.6
20260507045520 12 338 6.4 17.7 0.00 0.15 0.00 59 1009.5
20260507044519 12 315 8.0 16.1 0.00 0.15 0.00 59 1009.3
20260507043730 12 315 6.4 11.3 0.00 0.15 0.00 57 1009.6
20260507042731 12 315 4.8 14.5 0.00 0.15 0.00 52 1009.7
20260507041520 12 315 4.8 11.3 0.00 0.15 0.00 46 1009.5
20260507040520 12 315 4.8 9.7 0.00 0.15 0.00 43 1009.6
20260507035729 12 315 6.4 11.3 0.00 0.15 0.15 42 1009.6
20260507034730 12 315 1.6 4.8 0.00 0.15 0.15 38 1009.6
20260507033731 12 315 3.2 9.7 0.00 0.15 0.15 39 1009.4
20260507032519 13 315 3.2 9.7 0.00 0.15 0.15 42 1009.3
20260507031519 13 315 3.2 8.0 0.00 0.15 0.15 44 1009.1
20260507030519 13 315 3.2 11.3 0.00 0.15 0.15 45 1008.9
20260507025943 13 315 4.8 9.7 0.00 0.15 0.15 46 1009.1
20260507024731 13 315 8.0 14.5 0.00 0.15 0.15 46 1008.8
20260507023519 13 315 4.8 14.5 0.00 0.15 0.15 36 1009.3
20260507022519 13 315 1.6 8.0 0.00 0.15 0.15 27 1009.3
20260507021519 13 315 1.6 6.4 0.00 0.15 0.15 29 1009.1
20260507020519 13 315 4.8 9.7 0.00 0.15 0.15 32 1008.8
20260507015519 13 315 3.2 9.7 0.00 0.15 0.15 29 1008.9
20260507014519 14 315 4.8 9.7 0.00 0.15 0.15 30 1009.2
20260507013519 14 315 6.4 17.7 0.03 0.15 0.15 34 1009.1
20260507012519 14 315 6.4 12.9 0.03 0.15 0.15 32 1009.2
20260507011519 14 315 8.0 19.3 0.03 0.15 0.15 32 1009.2
20260507010519 15 293 6.4 12.9 0.03 0.15 0.15 32 1009.0
20260507005519 15 293 1.6 4.8 0.03 0.15 0.15 31 1008.9
20260507004519 15 293 4.8 9.7 0.03 0.15 0.15 33 1008.7
20260507003733 15 293 4.8 9.7 0.00 0.13 0.13 33 1008.6
20260507002519 15 293 6.4 12.9 0.00 0.13 0.13 33 1008.6
20260507001519 15 293 6.4 14.5 0.00 0.13 0.13 31 1008.0
20260507000519 15 293 8.0 12.9 0.00 0.13 0.13 32 1007.9
20260506235519 16 315 6.4 14.5 0.00 0.13 0.13 32 1007.6
20260506234519 16 293 4.8 12.9 0.00 0.13 0.13 34 1007.3
20260506233519 16 293 6.4 11.3 0.00 0.13 0.13 35 1007.3
20260506232519 16 315 6.4 12.9 0.00 0.13 0.13 34 1007.0
20260506231519 16 315 6.4 16.1 0.00 0.13 0.13 34 1006.9
20260506230519 16 315 8.0 14.5 0.00 0.13 0.13 32 1006.9
20260506225519 17 293 4.8 12.9 0.00 0.13 0.13 8 1006.8
20260506224520 17 293 3.2 8.0 0.00 0.13 0.13 12 1006.9
20260506223519 17 293 4.8 8.0 0.00 0.13 0.13 9 1006.9
20260506222519 17 293 4.8 11.3 0.00 0.13 0.13 13 1006.5
20260506221519 18 315 6.4 12.9 0.00 0.13 0.13 12 1006.4
20260506220519 18 293 9.7 19.3 0.03 0.13 0.13 15 1006.3
20260506215519 18 293 9.7 19.3 0.03 0.13 0.13 15 1006.0
20260506214519 19 315 6.4 12.9 0.03 0.13 0.13 100 1005.8
20260506213519 18 315 8.0 25.7 0.03 0.13 0.13 100 1005.7
20260506212519 19 315 3.2 8.0 0.03 0.13 0.13 100 1005.5
20260506211731 19 225 1.6 4.8 0.03 0.13 0.13 100 1005.3
20260506210519 19 225 3.2 8.0 0.00 0.10 0.10 100 1005.0
20260506205519 19 225 3.2 8.0 0.00 0.10 0.10 100 1005.1
20260506204519 19 225 6.4 12.9 0.00 0.10 0.10 100 1005.2
20260506203519 19 203 6.4 14.5 0.00 0.10 0.10 100 1005.1
20260506202519 19 270 4.8 12.9 0.00 0.10 0.10 100 1004.9
20260506201519 19 203 6.4 11.3 0.00 0.10 0.10 100 1005.0
20260506200519 19 270 8.0 20.9 0.00 0.10 0.10 100 1005.0
20260506195519 19 225 4.8 11.3 0.00 0.10 0.10 100 1004.9
20260506194520 19 270 6.4 14.5 0.00 0.10 0.10 100 1005.0
20260506193731 18 248 6.4 14.5 0.00 0.10 0.10 100 1005.0
20260506192519 18 270 4.8 12.9 0.00 0.10 0.10 100 1005.2
20260506191519 18 203 3.2 11.3 0.00 0.10 0.10 100 1005.3
20260506190520 18 225 3.2 8.0 0.00 0.10 0.10 100 1005.3
20260506185519 18 225 4.8 9.7 0.00 0.10 0.10 100 1005.3
20260506184520 17 225 6.4 14.5 0.00 0.10 0.10 100 1005.3
20260506183520 17 180 4.8 9.7 0.03 0.10 0.10 100 1005.4
20260506182519 17 158 6.4 11.3 0.03 0.10 0.10 100 1005.5
20260506181519 17 203 4.8 11.3 0.03 0.10 0.10 100 1005.5
20260506180520 17 203 8.0 17.7 0.03 0.10 0.10 100 1005.4
20260506175519 17 225 6.4 14.5 0.03 0.10 0.10 100 1005.5
20260506174519 16 248 6.4 12.9 0.03 0.10 0.10 100 1005.5
20260506173520 16 203 3.2 8.0 0.00 0.08 0.08 100 1005.4
20260506172519 16 203 1.6 8.0 0.00 0.08 0.08 100 1005.5
20260506171519 16 203 3.2 8.0 0.00 0.08 0.08 100 1005.6
20260506170519 16 203 3.2 8.0 0.00 0.08 0.08 100 1005.6
20260506165520 16 203 3.2 8.0 0.00 0.08 0.08 100 1005.6
20260506164520 16 203 3.2 8.0 0.00 0.08 0.08 100 1005.6
20260506163519 16 203 3.2 8.0 0.03 0.08 0.08 100 1005.6
20260506162520 15 203 6.4 11.3 0.03 0.08 0.08 100 1005.6
20260506161520 15 203 6.4 11.3 0.03 0.08 0.08 100 1005.7
20260506160520 15 203 6.4 11.3 0.03 0.08 0.08 100 1005.7
20260506155520 15 225 6.4 11.3 0.03 0.08 0.08 100 1005.6
20260506154946 15 203 3.2 11.3 0.03 0.08 0.08 100 1005.6
20260506153520 15 203 6.4 11.3 0.00 0.05 0.05 100 1005.5
20260506152519 15 203 6.4 12.9 0.00 0.05 0.05 100 1005.5
20260506151532 15 203 8.0 16.1 0.03 0.05 0.05 100 1005.4
20260506150519 15 180 8.0 17.7 0.03 0.05 0.05 100 1005.2
20260506145520 15 203 6.4 11.3 0.03 0.05 0.05 100 1005.4
20260506144519 15 180 6.4 11.3 0.03 0.05 0.05 100 1005.6
20260506143519 15 203 8.0 17.7 0.03 0.05 0.05 100 1005.7